Time,TemperatureF,DewpointF,PressureIn,WindDirection,WindDirectionDegrees,WindSpeedMPH,WindSpeedGustMPH,Humidity,HourlyPrecipIn,Conditions,Clouds,dailyrainin,SolarRadiationWatts/m^2,SoftwareType,DateUTC
2013-03-25 00:03:00,33.0,33.0,-100.00,SW,223,3.0,7.0,100,0.00,,,0.00,0.000000,,2013-03-25 04:03:00,
2013-03-25 00:43:00,32.0,32.0,-100.00,ENE,73,2.0,4.0,100,0.00,,,0.00,0.000000,,2013-03-25 04:43:00,
2013-03-25 00:52:00,32.0,32.0,-100.00,ENE,73,2.0,4.0,100,0.00,,,0.00,0.000000,,2013-03-25 04:52:00,
2013-03-25 01:03:00,32.0,32.0,-100.00,ENE,73,2.0,4.0,100,0.00,,,0.00,0.000000,,2013-03-25 05:03:00,
2013-03-25 01:12:00,32.0,32.0,-100.00,ENE,73,2.0,4.0,100,0.00,,,0.00,0.000000,,2013-03-25 05:12:00,
2013-03-25 01:33:00,32.0,32.0,-100.00,ENE,72,2.0,4.0,100,0.00,,,0.00,0.000000,,2013-03-25 05:33:00,
2013-03-25 01:42:00,32.0,32.0,-100.00,ENE,72,2.0,4.0,100,0.00,,,0.00,0.000000,,2013-03-25 05:42:00,
2013-03-25 01:53:00,32.0,32.0,-100.00,ENE,72,2.0,4.0,100,0.00,,,0.00,0.000000,,2013-03-25 05:53:00,
2013-03-25 02:02:00,32.0,32.0,-100.00,ENE,72,2.0,4.0,100,0.00,,,0.00,0.000000,,2013-03-25 06:02:00,
2013-03-25 02:12:00,32.0,32.0,-100.00,ENE,72,2.0,4.0,100,0.00,,,0.00,0.000000,,2013-03-25 06:12:00,
2013-03-25 02:13:00,32.0,32.0,-100.00,NNE,32,2.0,3.0,100,0.00,,,0.00,0.000000,,2013-03-25 06:13:00,
2013-03-25 02:33:00,32.0,32.0,-100.00,NNE,32,2.0,3.0,100,0.00,,,0.00,0.000000,,2013-03-25 06:33:00,
2013-03-25 02:42:00,32.0,32.0,-100.00,NNE,32,2.0,3.0,100,0.00,,,0.00,0.000000,,2013-03-25 06:42:00,
2013-03-25 02:53:00,32.0,32.0,-100.00,NNE,32,2.0,3.0,100,0.00,,,0.00,0.000000,,2013-03-25 06:53:00,
2013-03-25 03:02:00,32.0,32.0,-100.00,NNE,32,2.0,3.0,100,0.00,,,0.00,0.000000,,2013-03-25 07:02:00,
2013-03-25 03:42:00,32.0,32.0,-100.00,West,276,5.0,9.0,100,0.00,,,0.00,0.000000,,2013-03-25 07:42:00,
2013-03-25 03:53:00,32.0,32.0,-100.00,West,276,5.0,9.0,100,0.00,,,0.00,0.000000,,2013-03-25 07:53:00,
2013-03-25 04:03:00,32.0,32.0,-100.00,West,276,5.0,9.0,100,0.00,,,0.00,0.000000,,2013-03-25 08:03:00,
2013-03-25 04:12:00,32.0,32.0,-100.00,West,276,5.0,9.0,100,0.00,,,0.00,0.000000,,2013-03-25 08:12:00,
2013-03-25 04:13:00,32.0,32.0,-100.00,NNE,29,2.0,4.0,100,0.00,,,0.00,0.000000,,2013-03-25 08:13:00,
2013-03-25 04:43:00,32.0,32.0,-100.00,NNE,29,2.0,4.0,100,0.00,,,0.00,0.000000,,2013-03-25 08:43:00,
2013-03-25 04:52:00,32.0,32.0,-100.00,NNE,29,2.0,4.0,100,0.00,,,0.00,0.000000,,2013-03-25 08:52:00,
2013-03-25 05:02:00,32.0,32.0,-100.00,NNE,29,2.0,4.0,100,0.00,,,0.00,0.000000,,2013-03-25 09:02:00,
2013-03-25 05:33:00,32.0,32.0,-100.00,NE,41,1.0,2.0,100,0.00,,,0.00,0.000000,,2013-03-25 09:33:00,
2013-03-25 05:43:00,32.0,32.0,-100.00,NE,41,1.0,2.0,100,0.00,,,0.00,0.000000,,2013-03-25 09:43:00,
2013-03-25 05:53:00,32.0,32.0,-100.00,NE,41,1.0,2.0,100,0.00,,,0.00,0.000000,,2013-03-25 09:53:00,
2013-03-25 06:03:00,32.0,32.0,-100.00,NE,41,1.0,2.0,100,0.00,,,0.00,0.000000,,2013-03-25 10:03:00,
2013-03-25 06:12:00,32.0,32.0,-100.00,NE,41,1.0,2.0,100,0.00,,,0.00,0.000000,,2013-03-25 10:12:00,
2013-03-25 06:43:00,32.0,32.0,-100.00,NNE,33,1.0,3.0,100,0.00,,,0.00,0.000000,,2013-03-25 10:43:00,
2013-03-25 06:54:00,32.0,32.0,-100.00,NNE,33,1.0,3.0,100,0.00,,,0.00,0.000000,,2013-03-25 10:54:00,
2013-03-25 07:03:00,32.0,32.0,-100.00,NNE,33,1.0,3.0,100,0.00,,,0.00,0.000000,,2013-03-25 11:03:00,
2013-03-25 07:12:00,32.0,32.0,-100.00,NNE,33,1.0,3.0,100,0.00,,,0.00,0.000000,,2013-03-25 11:12:00,
2013-03-25 07:13:00,32.0,32.0,-100.00,NNE,14,1.0,4.0,100,0.00,,,0.00,0.000000,,2013-03-25 11:13:00,
2013-03-25 07:33:00,32.0,32.0,-100.00,NNE,14,1.0,4.0,100,0.00,,,0.00,0.000000,,2013-03-25 11:33:00,
2013-03-25 07:43:00,32.0,32.0,-100.00,NNE,14,1.0,4.0,100,0.00,,,0.00,0.000000,,2013-03-25 11:43:00,
2013-03-25 07:53:00,32.0,32.0,-100.00,NNE,14,1.0,4.0,100,0.00,,,0.00,0.000000,,2013-03-25 11:53:00,
2013-03-25 08:03:00,32.0,32.0,-100.00,NNE,14,1.0,4.0,100,0.00,,,0.00,0.000000,,2013-03-25 12:03:00,
2013-03-25 08:13:00,33.0,33.0,-100.00,NNE,12,0.0,1.0,100,0.00,,,0.00,5.000000,,2013-03-25 12:13:00,
2013-03-25 08:33:00,33.0,33.0,-100.00,NNE,12,0.0,1.0,100,0.00,,,0.00,5.000000,,2013-03-25 12:33:00,
2013-03-25 08:43:00,33.0,33.0,-100.00,NNE,12,0.0,1.0,100,0.00,,,0.00,5.000000,,2013-03-25 12:43:00,
2013-03-25 08:54:00,33.0,33.0,-100.00,NNE,12,0.0,1.0,100,0.00,,,0.00,5.000000,,2013-03-25 12:54:00,
2013-03-25 09:03:00,33.0,33.0,-100.00,NNE,12,0.0,1.0,100,0.00,,,0.00,5.000000,,2013-03-25 13:03:00,
2013-03-25 09:13:00,34.0,34.0,-100.00,NNE,21,1.0,2.0,100,0.00,,,0.00,16.000000,,2013-03-25 13:13:00,
2013-03-25 09:32:00,34.0,34.0,-100.00,NNE,21,1.0,2.0,100,0.00,,,0.00,16.000000,,2013-03-25 13:32:00,
2013-03-25 09:43:00,34.0,34.0,-100.00,NNE,21,1.0,2.0,100,0.00,,,0.00,16.000000,,2013-03-25 13:43:00,
2013-03-25 09:53:00,34.0,34.0,-100.00,NNE,21,1.0,2.0,100,0.00,,,0.00,16.000000,,2013-03-25 13:53:00,
2013-03-25 10:03:00,34.0,34.0,-100.00,NNE,21,1.0,2.0,100,0.00,,,0.00,16.000000,,2013-03-25 14:03:00,
2013-03-25 10:13:00,35.0,35.0,-100.00,North,1,3.0,5.0,100,0.00,,,0.00,25.000000,,2013-03-25 14:13:00,
2013-03-25 10:33:00,35.0,35.0,-100.00,North,1,3.0,5.0,100,0.00,,,0.00,25.000000,,2013-03-25 14:33:00,
2013-03-25 10:43:00,35.0,35.0,-100.00,North,1,3.0,5.0,100,0.00,,,0.00,25.000000,,2013-03-25 14:43:00,
2013-03-25 10:53:00,35.0,35.0,-100.00,North,1,3.0,5.0,100,0.00,,,0.00,25.000000,,2013-03-25 14:53:00,
2013-03-25 11:03:00,35.0,35.0,-100.00,North,1,3.0,5.0,100,0.00,,,0.00,25.000000,,2013-03-25 15:03:00,
2013-03-25 11:43:00,37.0,36.0,-100.00,North,7,3.0,6.0,96,0.00,,,0.00,82.000000,,2013-03-25 15:43:00,
2013-03-25 11:54:00,37.0,36.0,-100.00,North,7,3.0,6.0,96,0.00,,,0.00,82.000000,,2013-03-25 15:54:00,
2013-03-25 12:03:00,37.0,36.0,-100.00,North,7,3.0,6.0,96,0.00,,,0.00,82.000000,,2013-03-25 16:03:00,
2013-03-25 12:12:00,37.0,36.0,-100.00,North,7,3.0,6.0,96,0.00,,,0.00,82.000000,,2013-03-25 16:12:00,
2013-03-25 12:13:00,41.0,37.0,-100.00,North,350,4.0,6.0,85,0.13,,,0.13,427.000000,,2013-03-25 16:13:00,
2013-03-25 12:44:00,41.0,37.0,-100.00,North,350,4.0,6.0,85,0.13,,,0.13,427.000000,,2013-03-25 16:44:00,
2013-03-25 12:53:00,41.0,37.0,-100.00,North,350,4.0,6.0,85,0.13,,,0.13,427.000000,,2013-03-25 16:53:00,
2013-03-25 13:03:00,41.0,37.0,-100.00,North,350,4.0,6.0,85,0.13,,,0.13,427.000000,,2013-03-25 17:03:00,
2013-03-25 13:13:00,41.0,34.0,-100.00,NNW,334,3.0,5.0,77,0.33,,,0.46,389.000000,,2013-03-25 17:13:00,
2013-03-25 13:43:00,41.0,34.0,-100.00,NNW,334,3.0,5.0,77,0.33,,,0.46,389.000000,,2013-03-25 17:43:00,
2013-03-25 13:53:00,41.0,34.0,-100.00,NNW,334,3.0,5.0,77,0.33,,,0.46,389.000000,,2013-03-25 17:53:00,
2013-03-25 14:04:00,41.0,34.0,-100.00,NNW,334,3.0,5.0,77,0.33,,,0.46,389.000000,,2013-03-25 18:04:00,
2013-03-25 14:13:00,46.0,38.0,-100.00,NNE,12,2.0,5.0,73,0.09,,,0.55,424.000000,,2013-03-25 18:13:00,
2013-03-25 14:43:00,46.0,38.0,-100.00,NNE,12,2.0,5.0,73,0.09,,,0.55,424.000000,,2013-03-25 18:43:00,
2013-03-25 14:53:00,46.0,38.0,-100.00,NNE,12,2.0,5.0,73,0.09,,,0.55,424.000000,,2013-03-25 18:53:00,
2013-03-25 15:03:00,46.0,38.0,-100.00,NNE,12,2.0,5.0,73,0.09,,,0.55,424.000000,,2013-03-25 19:03:00,
2013-03-25 15:43:00,41.0,34.0,-100.00,NE,46,4.0,6.0,75,0.01,,,0.56,471.000000,,2013-03-25 19:43:00,
2013-03-25 15:53:00,41.0,34.0,-100.00,NE,46,4.0,6.0,75,0.01,,,0.56,471.000000,,2013-03-25 19:53:00,
2013-03-25 16:02:00,41.0,34.0,-100.00,NE,46,4.0,6.0,75,0.01,,,0.56,471.000000,,2013-03-25 20:02:00,
2013-03-25 16:12:00,41.0,34.0,-100.00,NE,46,4.0,6.0,75,0.01,,,0.56,471.000000,,2013-03-25 20:12:00,
2013-03-25 16:13:00,38.0,35.0,-100.00,NE,37,4.0,6.0,88,0.00,,,0.56,243.000000,,2013-03-25 20:13:00,
2013-03-25 16:42:00,38.0,35.0,-100.00,NE,37,4.0,6.0,88,0.00,,,0.56,243.000000,,2013-03-25 20:42:00,
2013-03-25 16:52:00,38.0,35.0,-100.00,NE,37,4.0,6.0,88,0.00,,,0.56,243.000000,,2013-03-25 20:52:00,
2013-03-25 17:03:00,38.0,35.0,-100.00,NE,37,4.0,6.0,88,0.00,,,0.56,243.000000,,2013-03-25 21:03:00,
2013-03-25 17:13:00,36.0,35.0,-100.00,NE,35,3.0,5.0,97,0.02,,,0.58,172.000000,,2013-03-25 21:13:00,
2013-03-25 17:33:00,36.0,35.0,-100.00,NE,35,3.0,5.0,97,0.02,,,0.58,172.000000,,2013-03-25 21:33:00,
2013-03-25 17:43:00,36.0,35.0,-100.00,NE,35,3.0,5.0,97,0.02,,,0.58,172.000000,,2013-03-25 21:43:00,
2013-03-25 17:52:00,36.0,35.0,-100.00,NE,35,3.0,5.0,97,0.02,,,0.58,172.000000,,2013-03-25 21:52:00,
2013-03-25 18:03:00,36.0,35.0,-100.00,NE,35,3.0,5.0,97,0.02,,,0.58,172.000000,,2013-03-25 22:03:00,
2013-03-25 18:43:00,36.0,36.0,-100.00,NNW,328,1.0,5.0,100,0.03,,,0.61,95.000000,,2013-03-25 22:43:00,
2013-03-25 18:52:00,36.0,36.0,-100.00,NNW,328,1.0,5.0,100,0.03,,,0.61,95.000000,,2013-03-25 22:52:00,
2013-03-25 19:03:00,36.0,36.0,-100.00,NNW,328,1.0,5.0,100,0.03,,,0.61,95.000000,,2013-03-25 23:03:00,
2013-03-25 19:12:00,36.0,36.0,-100.00,NNW,328,1.0,5.0,100,0.03,,,0.61,95.000000,,2013-03-25 23:12:00,
2013-03-25 19:43:00,35.0,35.0,-100.00,NNW,329,0.0,3.0,100,0.02,,,0.63,34.000000,,2013-03-25 23:43:00,
2013-03-25 19:53:00,35.0,35.0,-100.00,NNW,329,0.0,3.0,100,0.02,,,0.63,34.000000,,2013-03-25 23:53:00,
2013-03-25 20:02:00,35.0,35.0,-100.00,NNW,329,0.0,3.0,100,0.02,,,0.63,34.000000,,2013-03-26 00:02:00,
2013-03-25 20:12:00,35.0,35.0,-100.00,NNW,329,0.0,3.0,100,0.02,,,0.63,34.000000,,2013-03-26 00:12:00,
2013-03-25 21:33:00,33.0,33.0,-100.00,North,0,1.0,3.0,100,-99.99,,,0.65,0.000000,,2013-03-26 01:33:00,
2013-03-25 21:42:00,33.0,33.0,-100.00,North,0,1.0,3.0,100,-99.99,,,0.65,0.000000,,2013-03-26 01:42:00,
2013-03-25 21:53:00,33.0,33.0,-100.00,North,0,1.0,3.0,100,-99.99,,,0.65,0.000000,,2013-03-26 01:53:00,
2013-03-25 22:02:00,33.0,33.0,-100.00,North,0,1.0,3.0,100,-99.99,,,0.65,0.000000,,2013-03-26 02:02:00,
2013-03-25 22:12:00,33.0,33.0,-100.00,North,0,1.0,3.0,100,-99.99,,,0.65,0.000000,,2013-03-26 02:12:00,
2013-03-25 22:43:00,33.0,33.0,-100.00,NNE,19,1.0,2.0,100,0.01,,,0.66,0.000000,,2013-03-26 02:43:00,
2013-03-25 22:52:00,33.0,33.0,-100.00,NNE,19,1.0,2.0,100,0.01,,,0.66,0.000000,,2013-03-26 02:52:00,
2013-03-25 23:02:00,33.0,33.0,-100.00,NNE,19,1.0,2.0,100,0.01,,,0.66,0.000000,,2013-03-26 03:02:00,
2013-03-25 23:12:00,33.0,33.0,-100.00,NNE,19,1.0,2.0,100,0.01,,,0.66,0.000000,,2013-03-26 03:12:00,
2013-03-25 23:13:00,33.0,33.0,-100.00,West,260,1.0,3.0,100,0.00,,,0.66,0.000000,,2013-03-26 03:13:00,
2013-03-25 23:34:00,33.0,33.0,-100.00,West,260,1.0,3.0,100,0.00,,,0.66,0.000000,,2013-03-26 03:34:00,
2013-03-25 23:43:00,33.0,33.0,-100.00,West,260,1.0,3.0,100,0.00,,,0.66,0.000000,,2013-03-26 03:43:00,
2013-03-25 23:53:00,33.0,33.0,-100.00,West,260,1.0,3.0,100,0.00,,,0.66,0.000000,,2013-03-26 03:53:00,